Location: Knur�w
(50.2197°N, 18.6507°E)
Time: 14:18:26
(UTC+00:00)

Daily predictions for brighter satellites

Satellite Brightness Start Highest point End
(mag) Time Altitude Azimuth Time Altitude Azimuth Time Altitude Azimuth
STARLINK-1112 3.8 17:41:55 10° WNW 17:46:03 68° NNE 17:50:11 10° E
NOSS 0 Rocket 4.1 17:41:01 10° SSW 17:47:15 84° WNW 17:53:30 10° NNE
STARLINK-1110 4.0 17:43:36 10° WNW 17:47:37 58° SSW 17:51:36 10° SE
Cosmos 1331 Rocket 4.0 17:43:08 10° NNW 17:48:21 89° WSW 17:53:30 10° SSE
CZ-2C R/B 3.2 17:43:44 10° SE 17:48:35 51° ENE 17:53:16 10° N
STARLINK-1234 2.8 17:45:43 10° SW 17:48:38 63° SSE 17:51:36 10° ENE
STARLINK-1143 4.1 17:44:53 10° SW 17:48:43 40° SE 17:52:33 10° ENE
STARLINK-1124 4.1 17:44:40 10° WNW 17:48:45 58° SSW 17:52:49 10° SE
STARLINK-1128 3.8 17:46:54 10° WNW 17:51:02 70° NNE 17:55:11 10° E
USA 81 4.1 17:45:47 10° N 17:51:06 83° E 17:56:22 10° S
Okean 1 Rocket 4.3 17:47:51 10° SSW 17:52:04 46° WNW 17:56:17 10° N
USA 186 2.2 17:49:08 10° SSE 17:52:26 46° ENE 17:55:41 10° N
Cosmos 1745 Rocket 4.1 17:46:20 10° N 17:52:42 86° W 17:58:58 10° S
Cosmos 1544 Rocket 3.9 17:48:45 10° SSE 17:52:54 43° E 17:57:07 10° NNE
MOS 1 4.4 17:50:06 10° SSE 17:55:40 63° ENE 18:01:16 10° N
SPOT 3 Rocket 4.2 17:51:04 10° SE 17:55:51 38° ENE 18:00:40 10° N
STARLINK-1113 3.7 17:51:52 10° WNW 17:56:01 73° NNE 18:00:09 10° E
Cosmos 2369 Rocket 3.1 17:51:04 10° NNW 17:56:14 34° NE 18:01:21 10° ESE
Cosmos 1470 3.7 17:53:27 10° SSE 17:56:46 28° E 18:00:07 10° NNE
STARLINK-1122 4.2 17:53:02 10° WNW 17:57:01 52° SSW 18:00:57 10° SE
STARLINK-1241 4.0 17:53:17 10° SW 17:57:08 44° SSE 18:01:01 10° ENE
CZ-4 R/B 4.0 17:56:37 10° SSW 17:59:47 24° W 18:02:57 10° NW
COSMOS 2428 4.2 17:54:35 10° WSW 17:59:57 40° NW 18:05:21 10° NNE
STARLINK-1119 3.7 17:56:51 10° WNW 18:01:00 75° NNE 18:04:55 11° ESE
STARLINK-1126 4.3 17:57:58 10° WNW 18:01:55 48° SSW 18:05:50 10° SE
STARLINK-1239 3.9 17:58:05 10° SW 18:01:58 47° SSE 18:05:53 10° ENE
BREEZE-M DEB (TANK) 3.7 17:58:33 10° SW 18:03:59 26° SSE 18:06:12 13° ESE
Ariane Rocket 3.1 18:00:16 10° SSE 18:05:21 87° WSW 18:10:28 10° NNW
STARLINK-1114 3.7 18:01:52 10° WNW 18:06:01 78° NNE 18:09:44 13° ESE
STARLINK-1082 4.4 18:02:31 10° WNW 18:06:25 46° SSW 18:10:19 10° SE
STARLINK-1240 3.8 18:02:45 10° SW 18:06:41 50° SSE 18:10:37 10° ENE
SJ-6B 3.0 18:02:47 10° SSE 18:06:47 57° ENE 18:10:51 10° N
Cosmos 1733 3.1 18:04:10 10° S 18:07:56 85° ESE 18:11:45 10° N
Cosmos 1726 3.9 18:08:31 13° ESE 18:09:34 14° E 18:11:32 10° NE
Cosmos 1674 4.4 18:06:11 10° NNW 18:09:40 36° W 18:13:07 10° SSW
Cosmos 1758 3.9 18:06:33 10° SSE 18:10:18 36° E 18:14:05 10° NNE
Meteor 1-22 Rocket 4.0 18:05:04 10° S 18:10:21 81° E 18:15:40 10° NNE
ARGOS Delta rocket 4.2 18:05:27 10° S 18:10:35 83° WSW 18:16:01 10° NNW
CZ-2C R/B 4.4 18:06:19 10° NNE 18:10:38 33° E 18:14:53 10° SSE
STARLINK-1130 (DARKSAT) 3.6 18:06:50 10° WNW 18:11:00 81° NNE 18:14:30 14° ESE
STARLINK-1100 4.5 18:07:23 10° WNW 18:11:16 43° SW 18:15:08 10° SE
IRS-1A Rocket 4.4 18:05:43 10° SSE 18:11:22 84° WSW 18:17:13 10° NNW
STARLINK-1216 3.7 18:07:26 10° SW 18:11:24 54° SSE 18:15:22 10° ENE
Aureole 2 Rocket 3.7 18:08:36 10° N 18:11:35 25° NE 18:13:44 15° ESE
ATLAS CENTAUR R/B 4.1 18:09:54 10° WNW 18:12:29 15° NNW 18:14:59 10° NNE
NOSS 2-1 (E) 4.2 18:10:36 10° WSW 18:13:56 45° NW 18:17:47 10° NE
Cosmos 2219 Rocket 4.2 18:09:02 10° WSW 18:14:03 32° NW 18:19:05 10° NNE
STARLINK-1084 3.6 18:11:48 10° WNW 18:15:58 84° NNE 18:19:17 16° ESE
STARLINK-1237 3.7 18:12:11 10° SW 18:16:09 57° SSE 18:20:09 10° ENE
Cosmos 1943 Rocket 2.4 18:12:46 10° NNW 18:18:12 54° NE 18:23:01 13° SE
STARLINK-1209 2.7 18:15:58 10° WSW 18:18:54 82° NNW 18:21:29 13° ENE
ATLAS 2AS CENTAUR R/B 3.8 18:13:25 10° NW 18:20:43 40° NNE 18:26:55 13° E
STARLINK-1202 3.6 18:16:52 10° SW 18:20:52 61° SSE 18:24:45 11° ENE
SL-14 R/B 3.5 18:16:49 10° NNW 18:20:53 77° W 18:24:54 10° S
STARLINK-1098 3.6 18:16:48 10° WNW 18:20:57 87° NNE 18:24:04 17° ESE
STARLINK-1228 2.7 18:18:10 10° WSW 18:21:03 80° NNW 18:23:29 14° ENE
STARLINK-1123 3.6 18:21:46 10° WNW 18:25:56 90° SW 18:28:51 19° ESE
SL-8 R/B 3.7 18:21:15 10° W 18:26:02 73° S 18:29:36 18° E
ERBS 3.6 18:24:34 10° W 18:27:46 38° NNW 18:30:58 10° NE
STARLINK-1246 3.6 18:23:53 10° SW 18:27:56 66° SSE 18:31:36 13° ENE
Cosmos 2315 Rocket 4.0 18:23:02 10° S 18:29:19 74° E 18:35:41 10° NNE
USA 234 3.5 18:23:43 10° ENE 18:29:58 46° SE 18:36:12 10° SSW
ADEOS Rocket 4.3 18:23:24 10° N 18:29:59 48° WNW 18:35:55 10° SW
STARLINK-1097 3.6 18:26:45 10° WNW 18:30:55 86° SSW 18:33:37 21° ESE
Resurs 1-3 3.7 18:28:09 12° SSE 18:32:04 55° ENE 18:36:22 10° N
STARLINK-67 2.9 18:30:41 10° W 18:33:14 55° NNW 18:34:49 20° ENE
Cosmos 1626 2.8 18:29:44 10° NNW 18:33:22 56° W 18:37:00 10° S
STARLINK-1201 2.9 18:30:26 10° WSW 18:33:41 86° NNW 18:36:07 17° ENE
STARLINK-1224 3.5 18:31:06 10° WSW 18:35:09 72° SSE 18:38:29 15° ENE
Meteor 2-15 Rocket 4.4 18:29:14 10° S 18:35:10 59° E 18:41:08 10° NNE
H-2A R/B 2.6 18:30:19 10° S 18:35:34 61° WSW 18:40:42 10° NNW
STARLINK-1099 3.6 18:31:44 10° WNW 18:35:54 82° SSW 18:38:25 23° ESE
STARLINK-1203 3.4 18:32:47 10° WSW 18:36:47 77° SSE 18:39:58 15° ENE
Aureole 3 3.9 18:32:48 10° SSE 18:36:47 49° E 18:41:52 10° NNE
DMSP B5D2-2 4.4 18:32:38 10° NNE 18:37:37 43° E 18:42:35 10° S
SL-16 R/B 2.1 18:33:13 10° SSW 18:38:52 82° ESE 18:44:34 10° NNE
STARLINK-1225 3.5 18:35:43 10° WSW 18:39:47 76° SSE 18:42:57 16° ENE
SL-08 RB Rocket 3.7 18:35:36 10° SSE 18:40:07 83° WSW 18:44:44 10° NNW
STARLINK-1104 3.6 18:36:43 10° WNW 18:40:52 78° SSW 18:43:12 25° ESE
Resurs 01 Rocket 1.9 18:38:54 19° SE 18:41:49 49° ENE 18:46:05 10° N
STARLINK-1230 3.5 18:40:27 10° WSW 18:44:31 79° SSE 18:47:32 18° ENE
STARLINK-1144 3.6 18:41:42 10° WNW 18:45:51 75° SSW 18:47:59 27° SE
Meteor 2-15 4.4 18:40:04 10° S 18:46:08 85° E 18:52:14 10° NNE
Cosmos 2228 4.0 18:45:53 24° E 18:46:26 25° E 18:49:59 10° NNE
STARLINK-1233 3.0 18:44:00 10° WSW 18:47:07 73° NNW 18:48:52 24° ENE
STARLINK-1212 3.0 18:44:28 10° WSW 18:47:35 72° NNW 18:49:17 24° ENE
STARLINK-1105 3.0 18:44:53 10° WSW 18:48:02 72° NNW 18:49:43 25° ENE
NOSS 2-2 (C) 4.5 18:42:56 10° NW 18:48:26 87° NE 18:53:49 20° SE
STARLINK-1206 3.0 18:45:24 10° WSW 18:48:31 71° NNW 18:50:09 25° ENE
STARLINK-1247 3.0 18:45:50 10° WSW 18:48:57 71° NNW 18:50:34 25° ENE
STARLINK-1243 3.5 18:45:16 10° WSW 18:49:20 83° SSE 18:52:10 19° ENE
STARLINK-1227 3.0 18:46:15 10° WSW 18:49:23 71° NNW 18:51:02 25° ENE
Cosmos 1992 Rocket 4.0 18:44:20 10° NNW 18:49:33 69° ENE 18:52:57 22° SE
STARLINK-1218 3.0 18:46:44 10° WSW 18:49:51 70° NNW 18:51:26 26° ENE
Abrixas rocket 3.8 18:47:47 10° SSW 18:49:06 18° S 18:49:06 18° S
STARLINK-1226 3.0 18:47:11 10° WSW 18:50:18 70° NNW 18:51:53 26° ENE
STARLINK-1254 3.1 18:47:36 10° WSW 18:50:44 70° NNW 18:52:19 26° ENE
STARLINK-1103 3.7 18:46:41 10° WNW 18:50:49 71° SSW 18:52:45 30° SE
STARLINK-1215 3.0 18:48:06 10° W 18:51:12 70° NNW 18:52:45 27° ENE
Cosmos 1953 2.3 18:47:33 11° S 18:51:19 54° E 18:55:13 10° NNE
STARLINK-1231 3.1 18:48:32 10° W 18:51:39 69° NNW 18:53:09 27° ENE
STARLINK-1232 3.1 18:49:27 10° W 18:52:33 69° NNW 18:54:02 28° ENE
STARLINK-1217 3.1 18:49:54 10° W 18:53:01 68° NNW 18:54:29 28° ENE
STARLINK-1208 3.1 18:50:19 10° W 18:53:27 68° NNW 18:54:55 28° ENE
STARLINK-1229 3.1 18:50:48 10° W 18:53:54 68° NNW 18:55:20 29° ENE
STARLINK-1236 3.5 18:50:02 10° WSW 18:54:07 87° SSE 18:56:46 21° ENE
STARLINK-1271 3.1 18:51:14 10° W 18:54:21 68° NNW 18:55:47 29° ENE
STARLINK-1270 3.1 18:51:43 10° W 18:54:49 67° NNW 18:56:13 29° ENE
STARLINK-1154 3.1 18:52:10 10° W 18:55:16 67° NNW 18:56:39 29° ENE
STARLINK-1101 3.7 18:51:40 10° WNW 18:55:47 67° SSW 18:57:32 32° SE
STARLINK-1197 3.1 18:53:04 10° W 18:56:10 66° NNW 18:57:31 30° ENE
SL-24 R/B 4.0 18:51:38 10° NNE 18:56:22 78° ESE 19:00:28 10° S
STARLINK-1189 3.1 18:53:31 10° W 18:56:38 66° NNW 18:57:56 31° ENE
STARLINK-1187 3.2 18:54:23 10° W 18:57:30 63° NNW 18:58:50 30° ENE
STARLINK-1188 3.1 18:54:26 10° W 18:57:31 66° NNW 18:58:49 31° ENE
STARLINK-1198 3.1 18:54:26 10° W 18:57:32 66° NNW 18:58:49 31° ENE
STARLINK-1235 3.3 18:55:06 10° W 18:58:13 59° NNW 18:59:32 30° ENE
CZ-4C R/B 4.3 18:53:57 10° WNW 18:58:54 26° N 19:04:36 10° NE
STARLINK-1199 3.2 18:56:22 10° W 18:59:29 65° NNW 19:00:44 32° ENE
STARLINK-1191 3.2 18:56:49 10° W 18:59:56 64° NNW 19:01:10 33° ENE
STARLINK-1210 3.2 18:57:16 10° W 19:00:24 64° NNW 19:01:36 33° ENE
STARLINK-1102 3.8 18:56:38 10° WNW 19:00:44 63° SSW 19:02:19 35° SE
Cosmos 1603 4.1 18:55:38 10° S 19:00:49 39° ESE 19:06:00 10° NE
STARLINK-1221 3.2 18:57:43 10° W 19:00:51 64° NNW 19:02:02 33° NE
STARLINK-1219 3.2 18:58:11 10° W 19:01:18 64° NNW 19:02:29 33° NE
MetOp-B 4.4 18:58:49 26° SE 19:01:37 52° ENE 19:06:49 10° N
STARLINK-1222 3.2 18:58:37 10° W 19:01:45 64° NNW 19:02:54 34° NE
ISS -3.7 18:58:37 10° WNW 19:01:58 68° SSW 19:02:41 49° SE
STARLINK-1211 3.2 18:59:05 10° W 19:02:12 63° NNW 19:03:20 34° NE
Meteor 1-16 Rocket 4.3 18:58:28 16° SSE 19:02:33 48° E 19:07:48 10° NNE
STARLINK-1214 3.2 18:59:32 10° W 19:02:39 63° NNW 19:03:46 35° NE
STARLINK-1245 3.2 19:00:01 10° W 19:03:07 63° NNW 19:04:10 36° NE
Cosmos 2074 Rocket 3.9 18:56:52 10° N 19:03:11 77° E 19:08:16 16° SSE
Cosmos 2251 Rocket 3.6 18:58:00 10° S 19:03:13 54° ESE 19:08:28 10° NNE
STARLINK-1238 3.2 19:00:24 10° W 19:03:31 63° NNW 19:04:36 35° NE
STARLINK-1269 3.5 18:59:52 10° WSW 19:03:57 86° NNW 19:06:12 26° ENE
BREEZE-M DEB (TANK) 3.5 18:57:55 10° W 19:04:24 71° SSW 19:05:19 43° SE
STARLINK-1205 3.2 19:01:19 10° W 19:04:26 62° NNW 19:05:27 37° NE
Cosmos 2058 Rocket 4.5 19:05:24 22° ENE 19:05:24 22° ENE 19:08:17 10° NE
Cosmos 2084 Rocket 3.7 19:00:26 10° NW 19:04:54 70° SW 19:06:58 31° SSE
STARLINK-1204 3.2 19:01:49 10° W 19:04:54 62° NNW 19:05:54 37° NE
SPOT 5 4.2 19:05:12 20° ENE 19:05:39 20° ENE 19:08:50 10° NNE
STARLINK-1111 3.8 19:01:38 10° WNW 19:05:43 59° SSW 19:07:06 37° SSE
Cosmos 1703 3.5 19:03:56 10° N 19:07:46 47° ENE 19:08:26 42° ESE
CZ-2C R/B 2.5 19:02:47 10° NNE 19:07:58 65° ESE 19:13:05 10° S
STARLINK-1200 3.6 19:04:41 10° WSW 19:08:46 83° NNW 19:10:50 28° ENE
Cosmos 2237 Rocket 4.1 19:03:55 10° WSW 19:08:53 31° NW 19:13:54 10° NNE
ERS-1 Rocket 4.0 19:08:38 26° E 19:09:48 29° ENE 19:14:08 10° N
STARLINK-1073 3.9 19:06:37 10° WNW 19:10:41 56° SSW 19:11:53 39° SSE
Landsat 7 4.4 19:10:47 33° E 19:11:58 39° ENE 19:16:24 10° N
IGS 5A 4.2 19:12:34 34° E 19:12:58 35° ENE 19:16:46 10° N
STARLINK-1192 3.6 19:09:27 10° WSW 19:13:31 80° NNW 19:15:24 31° ENE
STARLINK-1121 4.0 19:11:35 10° WNW 19:15:38 52° SSW 19:16:39 41° SSE
Cosmos 292 Rocket 4.0 19:11:06 10° NNW 19:15:52 68° WSW 19:18:32 26° S
Cosmos 1610 Rocket 4.5 19:11:15 10° N 19:17:29 66° ENE 19:20:41 30° SSE
STARLINK-1244 3.6 19:14:22 10° WSW 19:18:27 77° NNW 19:20:08 34° ENE
Cosmos 1656 Rocket 3.8 19:12:55 10° NNW 19:18:34 59° NE 19:20:40 37° ESE
Meteor 1-11 4.4 19:14:17 10° N 19:20:01 57° ENE 19:22:10 36° SE
STARLINK-1106 4.1 19:16:34 10° WNW 19:20:34 49° SSW 19:21:25 41° S
MOS 1 Rocket 3.5 19:17:06 10° NNE 19:22:20 88° ESE 19:27:44 10° SSW
STARLINK-1138 3.7 19:18:58 10° WSW 19:23:04 75° NNW 19:24:34 37° ENE
STARLINK-1234 3.5 19:21:07 10° W 19:24:01 49° N 19:24:03 49° N
STARLINK-1112 4.1 19:21:35 10° WNW 19:25:34 46° SSW 19:26:14 42° S
STARLINK-1143 3.7 19:23:53 10° W 19:27:58 72° NNW 19:29:16 42° ENE
COSMOS 2455 3.8 19:24:14 10° NNW 19:29:46 35° NE 19:32:01 27° ENE
CARTOSAT-1 4.5 19:30:23 32° ENE 19:30:23 32° ENE 19:34:07 10° N
STARLINK-1128 4.2 19:26:35 10° WNW 19:30:31 43° SW 19:31:01 41° SSW
Cosmos 1437 3.1 19:28:34 10° NNW 19:31:24 56° W 19:31:24 56° W
Cosmos 1726 Rocket 3.5 19:33:41 61° ESE 19:34:01 63° E 19:38:24 10° NNE
STARLINK-1113 4.3 19:31:35 10° WNW 19:35:29 40° SW 19:35:47 39° SSW
Cosmos 2341 Rocket 4.2 19:29:51 10° N 19:36:04 52° ENE 19:37:48 41° ESE
Cosmos 1825 Rocket 3.9 19:31:49 10° NNW 19:36:13 64° W 19:37:53 36° SSW
STARLINK-1241 3.8 19:32:15 10° W 19:36:19 68° NNW 19:37:13 50° NE
NOSS 3-4 (A) 3.9 19:32:57 10° NW 19:39:45 66° NE 19:42:42 38° ESE
NOSS 3-4 (C) 3.9 19:33:03 10° NW 19:39:51 66° NE 19:42:48 38° ESE
STARLINK-1119 4.5 19:36:34 10° WNW 19:40:25 37° SW 19:40:34 37° SSW
Cosmos 2369 Rocket 2.7 19:35:00 10° NW 19:40:34 55° WSW 19:43:14 29° S
STARLINK-1239 3.8 19:37:12 10° W 19:41:14 66° NNW 19:41:56 54° NE
Cosmos 1461 4.1 19:39:58 10° NNW 19:44:04 34° NE 19:44:33 33° NE
Cosmos 1726 2.8 19:42:56 33° SW 19:44:19 53° WNW 19:48:01 10° N
Aureole 2 Rocket 4.0 19:42:18 10° NW 19:45:24 29° WSW 19:45:56 28° WSW
STARLINK-1240 3.8 19:41:56 10° W 19:45:59 65° N 19:46:29 58° NNE
Cosmos 2263 4.4 19:41:05 10° NW 19:46:40 65° WSW 19:48:36 40° S
SAR-Lupe-2 3.8 19:44:11 10° N 19:47:28 67° NNW 19:47:28 67° NNW
Cosmos 1908 3.5 19:48:58 59° NNE 19:48:58 59° NNE 19:52:10 10° N
NOSS 3-3 (A) 3.8 19:44:32 10° SSW 19:50:25 74° SE 19:57:07 10° NE
NOSS 3-3 (C) 3.8 19:44:38 10° SSW 19:50:31 73° SE 19:57:13 10° NE
STARLINK-1216 3.8 19:46:42 10° W 19:50:44 63° N 19:51:02 61° NNE
Meteor 2-17 Rocket 4.5 19:44:58 10° NNW 19:51:09 81° W 19:53:46 37° S
Cosmos 1953 Rocket 3.9 19:48:05 10° NNW 19:52:31 65° W 19:53:22 52° SSW
ATLAS CENTAUR R/B 4.2 19:51:51 10° NNW 19:53:05 11° N 19:54:17 10° NNE
Terra 2.5 19:53:53 39° ENE 19:53:53 39° ENE 19:58:04 10° N
Cosmos 1295 Rocket 4.4 19:47:30 10° N 19:53:47 87° ENE 19:55:56 45° SSE
STARLINK-1237 3.9 19:51:29 10° W 19:55:32 62° N 19:55:38 62° N
Spot 2 Rocket 3.7 19:55:41 45° SSW 19:57:10 67° WSW 20:02:17 10° NNW
STARLINK-1202 4.0 19:56:15 10° W 20:00:11 61° NNW 20:00:11 61° NNW
Cosmos 1606 Rocket 4.0 19:59:07 38° SW 20:00:33 59° WNW 20:04:59 10° N
SPOT 1/Viking Rocket 3.4 20:00:50 66° SSE 20:01:36 90° SSW 20:06:52 10° NNW
Cosmos 1943 Rocket 3.7 19:56:57 10° NW 20:01:41 29° WSW 20:04:34 19° SSW
Cosmos 2218 Rocket 4.2 19:57:14 10° N 20:03:15 51° ENE 20:03:48 50° E
ERBS 4.3 20:01:50 10° WNW 20:04:36 25° N 20:04:36 25° N
Cosmos 1943 3.1 20:01:04 18° SSW 20:05:23 89° ESE 20:11:07 10° NNE
STARLINK-1246 4.1 20:03:28 10° W 20:07:11 57° NNW 20:07:11 57° NNW
SL-8 R/B 4.4 20:03:46 10° W 20:07:34 41° SW 20:07:34 41° SW
ATLAS 2AS CENTAUR R/B 2.8 20:04:50 10° NW 20:12:35 87° SW 20:14:21 56° SE
USA 234 3.3 20:06:44 10° ENE 20:13:17 77° NNW 20:19:49 10° WSW
Cosmos 1340 Rocket 4.1 20:15:29 36° NNE 20:15:29 36° NNE 20:17:59 10° NNE
STARLINK-1224 4.4 20:10:37 10° W 20:13:58 50° NW 20:13:58 50° NW
Cosmos 2181 Rocket 4.0 20:15:29 59° E 20:15:32 59° E 20:21:39 10° NNE
APEX 4.3 20:09:05 10° NNW 20:16:07 89° ENE 20:17:01 68° SSE
Resurs 01 Rocket 3.8 20:16:28 15° SW 20:18:35 21° W 20:21:58 10° NW
Cosmos 921 Rocket 3.8 20:18:17 10° NNW 20:21:21 47° N 20:21:21 47° N
SL-16 R/B 4.4 20:19:05 10° W 20:23:41 25° NW 20:28:18 10° NNE
Cosmos 2228 4.4 20:22:39 30° WSW 20:23:49 36° WNW 20:27:51 10° N
Cosmos 407 Rocket 4.1 20:26:39 45° NE 20:26:39 45° NE 20:30:15 10° NNE
Cosmos 2058 4.4 20:23:04 10° N 20:25:19 29° NNE 20:25:19 29° NNE
Cosmos 1697 Rocket 4.4 20:23:06 10° NNW 20:27:23 21° NE 20:28:29 20° NE
Iridium 4 Rocket 4.1 20:25:53 10° N 20:28:55 41° N 20:28:55 41° N
SL-8 Rocket 3.9 20:30:07 10° N 20:36:27 84° W 20:37:01 75° SSW
Mayak 1.2 20:38:11 10° NNE 20:38:57 15° NNE 20:38:57 15° NNE
Cosmos 2058 Rocket 4.1 20:42:37 43° WNW 20:42:37 43° WNW 20:46:47 10° N
Cosmos 864 Rocket 4.3 20:36:32 10° N 20:42:50 85° E 20:42:54 85° E
SPOT 5 3.6 20:44:25 45° NW 20:44:25 45° NW 20:47:44 10° NNW
Cosmos 2366 rocket 3.8 20:38:05 10° N 20:44:16 90° E 20:44:18 89° SSE
Cosmos 614 Rocket 4.3 20:44:50 65° NNW 20:44:50 65° NNW 20:49:38 10° NNE
ERS-1 Rocket 3.7 20:48:38 46° W 20:48:38 46° W 20:53:17 10° NNW
CZ-4C R/B 4.1 20:43:40 10° NW 20:49:25 32° NNE 20:53:35 19° ENE
Cosmos 1980 Rocket 4.1 20:48:41 10° N 20:52:41 19° NE 20:53:42 19° NE
COSMOS 2455 3.3 21:10:08 10° NW 21:15:09 56° WNW 21:15:09 56° WNW
Cosmos 1821 Rocket 4.2 21:22:02 10° N 21:27:28 66° N 21:27:28 66° N
Cosmos 1656 4.4 21:24:26 10° NNW 21:28:47 50° N 21:28:47 50° N
Terra 3.6 21:32:45 26° WNW 21:32:45 26° WNW 21:35:39 10° NNW
ATLAS CENTAUR R/B 4.0 21:30:26 10° NNW 21:31:51 16° N 21:31:51 16° N
ATLAS 5 CENTAUR R/B 4.5 21:38:36 11° NE 21:38:36 11° NE 21:38:49 10° NE
Cosmos 1934 Rocket 4.5 21:41:46 10° N 21:46:48 56° NNE 21:46:48 56° NNE
USA 234 3.9 21:49:40 10° ENE 21:55:56 51° N 22:02:12 10° WNW
ATLAS 2AS CENTAUR R/B 4.3 21:56:55 10° WNW 22:01:48 23° W 22:01:48 23° W
Cosmos 2344 4.4 21:56:36 10° NW 22:05:38 69° NE 22:09:43 45° ESE
Cosmos 1697 Rocket 3.8 22:06:34 10° NNW 22:10:12 41° NNW 22:10:12 41° NNW
SL-16 R/B 4.0 22:10:22 10° NNW 22:14:54 24° NE 22:15:22 23° NE
Mayak 1.5 22:14:09 10° N 22:15:32 17° NNW 22:15:32 17° NNW
Cosmos 2322 Rocket 4.0 22:24:38 10° NNW 22:29:15 25° NE 22:29:38 24° NE
Cosmos 1980 Rocket 3.4 22:32:05 10° NNW 22:35:28 37° NNW 22:35:28 37° NNW
CZ-4C R/B 3.0 22:32:14 10° NW 22:38:45 67° NNE 22:38:45 67° NNE
COSMOS 2406 4.4 22:56:09 39° N 22:56:09 39° N 22:59:54 10° NNE
Cosmos 2082 Rocket 3.7 23:00:51 31° NE 23:00:51 31° NE 23:03:48 10° NNE
ATLAS 5 CENTAUR R/B 3.8 23:20:05 25° N 23:20:05 25° N 23:23:36 10° NE
Cosmos 1833 Rocket 3.8 23:28:31 40° N 23:28:31 40° N 23:32:22 10° NNE
CZ-2D R/B 3.9 23:29:33 10° NE 23:32:53 24° ENE 23:32:53 24° ENE
Resurs 1-4 Rocket 3.9 23:31:03 10° NE 23:34:06 23° ENE 23:34:06 23° ENE
USA 234 3.7 23:32:04 10° E 23:38:27 57° NNE 23:44:49 10° WNW
SL-16 R/B 2.9 23:52:44 61° NE 23:52:44 61° NE 23:58:27 10° N
